Regional Weather Roundup
Issued by NWS

Home | Current Version | Previous Version | Text Only | Print | Product List | Glossary Off
Versions: 1 2 3 4 5 6 7 8 9 10 11 12 13 14 15 16 17 18 19 20 21 22 23 24 25 26 27 28 29 30 31 32 33 34 35 36 37 38 39 40 41 42 43 44 45 46 47 48 49 50

000
ASUS43 KFSD 102202
RWRSD

WEATHER ROUNDUP FOR SOUTH DAKOTA
NATIONAL WEATHER SERVICE SIOUX FALLS SD
500 PM CDT THU JUL 10 2014

NOTE: "FAIR" INDICATES FEW OR NO CLOUDS BELOW 12,000 FEET WITH NO
SIGNIFICANT WEATHER AND/OR OBSTRUCTIONS TO VISIBILITY.


SDZ001>005-009-010-012>017-102300-
NORTHWEST AND NORTH CENTRAL SOUTH DAKOTA

CITY           SKY/WX    TMP DP  RH WIND       PRES   REMARKS
BUFFALO          N/A     88  64  44 SW7       29.76F
FAITH            N/A     80  65  59 S10       29.83F
MOBRIDGE       MOSUNNY   80  67  64 S15       29.78F
$$

SDZ012>016-024>037-041>051-057-063-072>074-102300-
SOUTHWEST AND SOUTH CENTRAL SOUTH DAKOTA

CITY           SKY/WX    TMP DP  RH WIND       PRES   REMARKS
RAPID CTY ARPT PTSUNNY   72  64  76 W9        29.90R
PIERRE         CLOUDY    82  66  58 S12       29.79F
CUSTER         MOSUNNY   77  56  48 E8        30.03R
ELLSWORTH AFB  CLOUDY    76  66  71 SW10      29.89R
PHILIP         PTSUNNY   87  66  49 CALM      29.81S
PINE RIDGE     PTSUNNY   90  63  40 NW8       29.85S
WINNER         FAIR      90  67  46 S17G24    29.81F
$$

SDZ004>011-016>023-039-040-102300-
NORTHEAST SOUTH DAKOTA

CITY           SKY/WX    TMP DP  RH WIND       PRES   REMARKS
ABERDEEN       LGT RAIN  74  68  81 E8        29.84F
WATERTOWN      CLOUDY    76  66  71 S15       29.88F
SISSETON         N/A     79  66  64 S10       29.86S
$$

SDZ017-020-022-023-036>040-048>070-102300-
SOUTHEAST SOUTH DAKOTA

CITY           SKY/WX    TMP DP  RH WIND       PRES   REMARKS
SIOUX FALLS    CLOUDY    81  64  56 S17G23    29.93F
HURON          LGT RAIN  77  67  71 SE8       29.84F
CHAMBERLAIN    MOSUNNY   85  68  55 S18       29.81F
MITCHELL       PTSUNNY   84  66  54 SE20G25   29.85F
YANKTON        CLOUDY    82  68  61 S18G25    29.89F
$$

ABBREVIATIONS USED IN REMARKS
   TC - TEMPERATURE IN CELSIUS
  WCI - WIND CHILL INDEX
   HX - HEAT INDEX
  VSB - VISIBILITY



USA.gov is the U.S. government's official web portal to all federal, state and local government web resources and services.